User: anonymous   Login
Location: NJAA Observatory
(40.6819°N, 74.8979°W)
Time: 17:46:56
(UTC-04:00)
Language:

Landsat 5 - Orbit

View from above orbital plane
View from above orbital plane
View from above satellite
View from above satellite

Ground track
Ground track

The orbit data is extracted from the following two-line orbital elements,

1 14780U 84021A   15245.18229733  .00000947  00000-0  95436-4 0  9998
2 14780  98.0292 334.7930 0093217 161.0969 199.3748 14.90519550678411
Epoch (UTC): 02 September 2015 04:22:30
Eccentricity: 0.0093217
inclination: 98.0292°
perigee height: 531 km
apogee height: 661 km
right ascension of ascending node: 334.7930°
argument of perigee: 161.0969°
revolutions per day: 14.90519550
mean anomaly at epoch: 199.3748°
orbit number at epoch: 67841

The dashed part of the orbit path shows where the satellite is in the earth's shadow,  

DLR